[[{"header":{"parameterUnit":"m.s-1","parameterCategory":1,"la1":30.2991,"la2":30.254,"lo1":-89.0895,"lo2":-89.0444,"dy":0.0017,"dx":0.0017,"nx":28,"ny":28,"refTime":"2023-09-27T21:00:00:Z","depth":0,"parameterNumber":2,"parameterNumberName":"U-component_of_WINDS"},"data":[0,0,0,0,0,0,0,0,0,0,0,0,0,0,0,0,0,0,0,0,0,0,0,0,0,0,0,0,0,0,0,0,0,0,0,0,0,0,0,0,0,0,0,0,0,0,0,0,0,0,0,0,0,0,0,0,0,0,-3.3755,-3.3755,0,-3.3686,-3.3685,-3.3684,-3.3587,-3.3585,-3.3583,-3.3582,-3.3512,-3.3512,-3.3511,0,0,0,0,0,0,0,0,0,0,0,0,0,-3.3807,-3.3807,-3.3756,-3.3755,-3.3754,-3.3686,-3.3685,-3.3684,-3.3587,-3.3585,-3.3583,-3.3581,-3.3512,-3.3512,-3.3511,0,0,0,0,0,0,0,0,0,0,0,0,0,-3.3766,-3.3807,-3.3756,-3.3697,-3.3691,-3.3686,-3.3685,-3.3683,-3.3587,-3.3585,-3.3582,-3.358,-3.3512,-3.3512,-3.3511,-3.3558,0,0,-3.351,-3.3509,0,0,0,0,0,0,0,0,-3.3768,-3.3764,-3.3707,-3.3701,-3.3695,-3.3642,-3.3677,-3.3641,-3.3588,-3.3627,-3.3582,-3.3579,-3.3557,-3.3553,-3.3545,-3.3555,-3.3552,-3.351,-3.3509,-3.3509,-3.3509,0,0,0,0,0,0,0,-3.3771,-3.3767,-3.3728,-3.3706,-3.3699,-3.3675,-3.3667,-3.367,-3.3607,-3.3623,-3.3616,-3.3609,-3.3554,-3.3546,-3.3543,-3.355,-3.351,-3.3509,-3.3509,-3.3509,-3.3596,-3.3599,0,0,0,0,0,0,-3.3783,-3.377,-3.373,-3.3726,-3.3726,-3.3676,-3.3667,-3.3662,-3.3607,-3.3596,-3.3611,-3.3605,-3.3548,-3.3544,-3.354,-3.3593,-3.3509,-3.3509,-3.3508,-3.3594,-3.3597,-3.36,0,0,0,0,0,0,-3.3784,-3.378,-3.3733,-3.3746,-3.3738,-3.3678,-3.3673,-3.3662,-3.3654,-3.3597,-3.3586,-3.3615,-3.3546,-3.3541,-3.3554,-3.3589,-3.3508,-3.3508,-3.359,-3.3595,-3.3598,-3.3697,0,0,0,0,0,0,-3.3786,-3.3781,-3.3798,-3.3747,-3.3738,-3.3748,-3.3675,-3.3662,-3.3653,-3.3644,-3.3598,-3.3588,-3.3544,-3.3556,-3.3554,-3.3587,-3.3508,-3.3587,-3.3592,-3.3597,-3.3691,-3.3704,-3.3716,0,0,0,0,0,-3.3788,-3.3829,-3.3799,-3.3795,-3.3757,-3.375,-3.3745,-3.3693,-3.3656,-3.3673,-3.3637,-3.3589,-3.3585,-3.3558,-3.3555,-3.3588,-3.3585,-3.3591,-3.3596,-3.3685,-3.3701,-3.3715,0,0,0,0,0,0,-3.3886,-3.3821,-3.3788,-3.3812,-3.3788,-3.3734,-3.3753,-3.3711,-3.3697,-3.3689,-3.3625,-3.3615,-3.3637,-3.3614,-3.3585,-3.3631,-3.3578,-3.3583,-3.3646,-3.3661,-3.3673,-3.368,-3.3507,0,0,0,0,0,-3.391,-3.3909,-3.3853,-3.388,-3.3869,-3.3814,-3.3809,-3.377,-3.3742,-3.3732,-3.3696,-3.3671,-3.3664,-3.3661,-3.3651,-3.3686,-3.3676,-3.3708,-3.372,-3.3731,-3.3737,-3.3756,-3.377,-3.3619,-3.3619,-3.3619,0,0,-3.396,-3.3925,-3.3928,-3.3899,-3.3875,-3.3877,-3.3805,-3.381,-3.3811,-3.3732,-3.3743,-3.3717,-3.3685,-3.371,-3.3719,-3.3691,-3.3776,-3.3738,-3.3747,-3.3747,-3.3763,-3.3777,-3.379,-3.3623,-3.3622,-3.3621,0,0,-3.4053,-3.4025,-3.4046,-3.4024,-3.3989,-3.3951,-3.3957,-3.3909,-3.3889,-3.3898,-3.384,-3.384,-3.3829,-3.3809,-3.3798,-3.3884,-3.3841,-3.3883,-3.3948,-3.3967,-3.3979,-3.3989,-3.4022,-3.4034,-3.3889,-3.3889,-3.3889,0,-3.412,-3.412,-3.4062,-3.407,-3.406,-3.3988,-3.401,-3.3991,-3.3955,-3.395,-3.3918,-3.3904,-3.3877,-3.3897,-3.3918,-3.3911,-3.3916,-3.3888,-3.3982,-3.3992,-3.4,-3.4031,-3.4043,-3.3894,-3.3894,-3.3893,-3.3893,0,-3.4205,-3.4206,-3.4227,-3.4194,-3.4185,-3.42,-3.4145,-3.4144,-3.4107,-3.4073,-3.4085,-3.405,-3.4033,-3.4035,-3.3998,-3.4051,-3.4034,-3.3993,-3.3939,-3.4021,-3.4049,-3.406,-3.3902,-3.39,-3.3899,-3.3897,0,0,-3.4358,-3.4293,-3.4302,-3.4287,-3.4243,-3.4243,-3.4255,-3.4237,-3.4238,-3.4216,-3.4225,-3.4218,-3.418,-3.4167,-3.4128,-3.4144,-3.4217,-3.4101,-3.4099,-3.4126,-3.4275,-3.4308,-3.4322,-3.4188,-3.4189,-3.4191,-3.4278,0,-3.4444,-3.4461,-3.4409,-3.4439,-3.444,-3.4372,-3.4383,-3.4358,-3.4327,-3.4324,-3.429,-3.4286,-3.4235,-3.4228,-3.4241,-3.4206,-3.4247,-3.4198,-3.4198,-3.4198,-3.421,-3.4336,-3.437,-3.4454,-3.4289,-3.429,-3.4292,0,-3.4546,-3.453,-3.456,-3.4516,-3.4514,-3.4524,-3.4505,-3.4502,-3.4473,-3.445,-3.4436,-3.439,-3.44,-3.4347,-3.436,-3.4329,-3.4325,-3.4308,-3.431,-3.431,-3.4252,-3.4341,-3.448,-3.4493,-3.4308,-3.4307,-3.4305,0,-3.4658,-3.4642,-3.4659,-3.4647,-3.4596,-3.4605,-3.4584,-3.4552,-3.4545,-3.4529,-3.4524,-3.4509,-3.4502,-3.4491,-3.4444,-3.4409,-3.4464,-3.4406,-3.4446,-3.4448,-3.4462,-3.4462,-3.4605,-3.4457,-3.4457,-3.4457,-3.4456,0,-3.476,-3.4782,-3.4708,-3.4719,-3.4741,-3.4682,-3.4707,-3.4679,-3.4651,-3.4656,-3.4596,-3.4602,-3.4537,-3.4536,-3.4498,-3.4517,-3.4513,-3.4496,-3.4486,-3.4502,-3.4505,-3.4501,-3.4494,-3.446,-3.4459,-3.4458,-3.4458,0,-3.4889,-3.484,-3.4854,-3.4804,-3.4792,-3.4811,-3.4768,-3.4776,-3.4742,-3.4748,-3.4747,-3.4693,-3.4689,-3.4639,-3.4624,-3.4599,-3.4633,-3.4611,-3.4644,-3.4637,-3.4681,-3.4679,-3.4827,-3.4845,-3.4685,-3.4686,-3.4687,0,-3.4958,-3.4973,-3.4925,-3.4924,-3.4905,-3.4904,-3.4897,-3.4839,-3.4835,-3.4803,-3.4816,-3.4807,-3.4797,-3.4794,-3.4754,-3.4743,-3.4721,-3.4774,-3.4719,-3.4736,-3.4725,-3.4725,-3.4727,-3.4786,-3.4788,-3.479,-3.4791,0,-3.5088,-3.5063,-3.5055,-3.5039,-3.5032,-3.5017,-3.4998,-3.5001,-3.4938,-3.4936,-3.4931,-3.4923,-3.4908,-3.4901,-3.4883,-3.4862,-3.4817,-3.4809,-3.4818,-3.4836,-3.4855,-3.4847,-3.4677,-3.4806,-3.4804,-3.4803,-3.4803,-3.4802,-3.519,-3.5201,-3.5169,-3.5162,-3.5142,-3.5126,-3.5132,-3.5098,-3.5092,-3.5076,-3.5042,-3.5043,-3.5014,-3.4985,-3.4968,-3.4969,-3.4942,-3.4955,-3.4958,-3.4963,-3.4973,-3.4853,-3.4965,-3.4964,-3.4964,-3.4964,-3.4963,0,-3.5318,-3.5294,-3.5288,-3.5264,-3.526,-3.5216,-3.5194,-3.5193,-3.5194,-3.5171,-3.5162,-3.5158,-3.515,-3.511,-3.5099,-3.5107,-3.5087,-3.5106,-3.5106,-3.5103,-3.4996,-3.499,-3.5123,-3.5123,-3.5123,-3.5123,-3.5123,-3.5123,-3.5384,-3.5401,-3.5373,-3.5379,-3.5355,-3.5355,-3.5346,-3.5332,-3.5313,-3.531,-3.5304,-3.5277,-3.5248,-3.5234,-3.5226,-3.5214,-3.5214,-3.5241,-3.5223,-3.5125,-3.511,-3.5095,-3.5089,-3.5241,-3.5241,-3.5329,-3.533,-3.5331]},{"header":{"parameterUnit":"m.s-1","parameterCategory":1,"la1":30.2991,"la2":30.254,"lo1":-89.0895,"lo2":-89.0444,"dy":0.0017,"dx":0.0017,"nx":28,"ny":28,"refTime":"2023-09-27T21:00:00:Z","depth":0,"parameterNumber":3,"parameterNumberName":"V-component_of_WINDS"},"data":[0,0,0,0,0,0,0,0,0,0,0,0,0,0,0,0,0,0,0,0,0,0,0,0,0,0,0,0,0,0,0,0,0,0,0,0,0,0,0,0,0,0,0,0,0,0,0,0,0,0,0,0,0,0,0,0,0,0,-1.2805,-1.2806,0,-1.2884,-1.2885,-1.2886,-1.2888,-1.2887,-1.2886,-1.2885,-1.2971,-1.2974,-1.2977,0,0,0,0,0,0,0,0,0,0,0,0,0,-1.2662,-1.2665,-1.2805,-1.2806,-1.2807,-1.2884,-1.2885,-1.2886,-1.2888,-1.2887,-1.2886,-1.2885,-1.297,-1.2973,-1.2977,0,0,0,0,0,0,0,0,0,0,0,0,0,-1.2731,-1.2665,-1.2805,-1.2817,-1.2819,-1.2884,-1.2885,-1.2886,-1.2888,-1.2887,-1.2885,-1.2884,-1.2968,-1.2973,-1.2978,-1.3037,0,0,-1.2992,-1.2995,0,0,0,0,0,0,0,0,-1.2727,-1.2736,-1.2814,-1.2816,-1.2819,-1.2875,-1.2866,-1.2937,-1.2889,-1.2862,-1.2885,-1.2883,-1.294,-1.2947,-1.2965,-1.3041,-1.3044,-1.2993,-1.2996,-1.2998,-1.2999,0,0,0,0,0,0,0,-1.2722,-1.2733,-1.2836,-1.2816,-1.2818,-1.2821,-1.2829,-1.2879,-1.2909,-1.2864,-1.2865,-1.2874,-1.2941,-1.2961,-1.2967,-1.3046,-1.2993,-1.2997,-1.3,-1.3002,-1.3178,-1.3179,0,0,0,0,0,0,-1.2714,-1.2729,-1.2834,-1.2839,-1.2768,-1.2825,-1.2834,-1.2858,-1.2908,-1.2914,-1.2875,-1.2874,-1.2953,-1.2962,-1.297,-1.3046,-1.2998,-1.3002,-1.3005,-1.3176,-1.3178,-1.318,0,0,0,0,0,0,-1.2711,-1.2724,-1.2831,-1.2784,-1.2798,-1.2828,-1.2856,-1.2861,-1.288,-1.2916,-1.2922,-1.2889,-1.2953,-1.2964,-1.3021,-1.3049,-1.3004,-1.3009,-1.3174,-1.3177,-1.3179,-1.3196,0,0,0,0,0,0,-1.2707,-1.2722,-1.2744,-1.2784,-1.28,-1.2878,-1.2858,-1.2863,-1.2888,-1.2887,-1.2931,-1.2937,-1.2952,-1.3014,-1.3026,-1.3055,-1.3013,-1.3172,-1.3175,-1.3178,-1.3193,-1.3199,-1.3204,0,0,0,0,0,-1.2702,-1.2745,-1.2745,-1.2757,-1.2827,-1.288,-1.2889,-1.2904,-1.289,-1.2913,-1.2936,-1.2936,-1.3043,-1.302,-1.3033,-1.3064,-1.317,-1.3174,-1.3178,-1.3191,-1.3198,-1.3204,0,0,0,0,0,0,-1.2708,-1.2751,-1.2751,-1.2808,-1.284,-1.288,-1.2909,-1.2911,-1.2948,-1.2946,-1.2965,-1.2975,-1.3033,-1.3053,-1.3026,-1.3126,-1.3105,-1.3112,-1.311,-1.3117,-1.3122,-1.3118,-1.3017,0,0,0,0,0,-1.2716,-1.2754,-1.2789,-1.2837,-1.2853,-1.2878,-1.2901,-1.291,-1.2945,-1.2959,-1.2986,-1.3022,-1.3064,-1.3091,-1.3131,-1.3195,-1.3207,-1.3223,-1.3229,-1.3233,-1.324,-1.3279,-1.3288,-1.3193,-1.3193,-1.3193,0,0,-1.2733,-1.2761,-1.2784,-1.2839,-1.2865,-1.2906,-1.289,-1.2932,-1.2964,-1.2966,-1.3022,-1.3044,-1.3084,-1.3146,-1.3174,-1.3165,-1.3268,-1.3238,-1.3241,-1.3246,-1.3284,-1.3293,-1.3301,-1.3196,-1.3196,-1.3195,0,0,-1.2786,-1.2809,-1.2853,-1.288,-1.2919,-1.2936,-1.2946,-1.2986,-1.3,-1.3056,-1.306,-1.3098,-1.3169,-1.3199,-1.3223,-1.3289,-1.3292,-1.3302,-1.3331,-1.3369,-1.3377,-1.3384,-1.3411,-1.342,-1.3308,-1.3308,-1.3308,0,-1.2804,-1.2863,-1.2876,-1.292,-1.2946,-1.2948,-1.2994,-1.302,-1.307,-1.3089,-1.3077,-1.3169,-1.3196,-1.3266,-1.3283,-1.3301,-1.3317,-1.3298,-1.3374,-1.3381,-1.3388,-1.3414,-1.3424,-1.3309,-1.3309,-1.3309,-1.3309,0,-1.2884,-1.2926,-1.2957,-1.3006,-1.3034,-1.3079,-1.3101,-1.3129,-1.3135,-1.3154,-1.3214,-1.3246,-1.3295,-1.3312,-1.3318,-1.3384,-1.3378,-1.337,-1.335,-1.3398,-1.3423,-1.3433,-1.3311,-1.331,-1.331,-1.331,0,0,-1.2945,-1.3,-1.3012,-1.3036,-1.3079,-1.3113,-1.3159,-1.3205,-1.3231,-1.3266,-1.3308,-1.3368,-1.3362,-1.3389,-1.34,-1.3433,-1.3488,-1.3421,-1.3423,-1.3436,-1.3567,-1.3576,-1.3587,-1.3488,-1.349,-1.3491,-1.3565,0,-1.3005,-1.3086,-1.31,-1.3172,-1.3212,-1.3216,-1.3257,-1.3289,-1.3308,-1.3347,-1.3369,-1.3413,-1.3399,-1.3416,-1.3449,-1.3474,-1.3515,-1.3468,-1.3531,-1.3533,-1.3524,-1.3599,-1.3608,-1.3676,-1.3575,-1.3576,-1.3577,0,-1.3087,-1.3124,-1.32,-1.3241,-1.3259,-1.3295,-1.334,-1.3376,-1.3415,-1.3426,-1.3458,-1.3465,-1.3516,-1.3492,-1.3564,-1.3533,-1.3559,-1.3575,-1.3578,-1.3588,-1.3561,-1.3615,-1.3698,-1.3709,-1.3592,-1.3591,-1.359,0,-1.3128,-1.3197,-1.3252,-1.3272,-1.332,-1.3346,-1.3368,-1.3404,-1.3432,-1.3472,-1.3491,-1.3537,-1.3563,-1.3599,-1.3619,-1.3599,-1.3692,-1.3668,-1.3707,-1.3706,-1.3729,-1.3728,-1.3821,-1.3739,-1.3739,-1.3739,-1.3738,0,-1.3197,-1.3244,-1.3272,-1.3306,-1.3361,-1.3376,-1.343,-1.3451,-1.3484,-1.3525,-1.353,-1.3568,-1.3591,-1.3633,-1.3649,-1.371,-1.372,-1.3734,-1.3738,-1.3736,-1.3735,-1.3756,-1.3753,-1.3741,-1.3741,-1.374,-1.374,0,-1.3253,-1.3273,-1.3335,-1.3375,-1.3387,-1.3425,-1.3461,-1.3496,-1.3515,-1.3567,-1.358,-1.361,-1.3661,-1.3683,-1.3746,-1.3757,-1.3827,-1.3826,-1.3814,-1.3816,-1.3855,-1.3853,-1.3968,-1.3986,-1.3888,-1.3889,-1.389,0,-1.3297,-1.3334,-1.3379,-1.3406,-1.3428,-1.3471,-1.35,-1.3518,-1.3548,-1.3595,-1.3626,-1.3676,-1.3718,-1.3799,-1.3828,-1.3877,-1.388,-1.3917,-1.3887,-1.3885,-1.3885,-1.3885,-1.389,-1.3923,-1.3924,-1.3925,-1.3926,0,-1.3375,-1.3384,-1.3424,-1.3469,-1.3504,-1.354,-1.3576,-1.3598,-1.3621,-1.3656,-1.3707,-1.3739,-1.3803,-1.3855,-1.3905,-1.393,-1.3934,-1.3934,-1.3946,-1.3946,-1.394,-1.3948,-1.3833,-1.3932,-1.3932,-1.3931,-1.3931,-1.393,-1.343,-1.3464,-1.3502,-1.3548,-1.3576,-1.361,-1.3646,-1.3669,-1.3712,-1.3765,-1.3773,-1.3829,-1.3869,-1.3937,-1.3964,-1.401,-1.4001,-1.4018,-1.4023,-1.4028,-1.4032,-1.3929,-1.4018,-1.4018,-1.4018,-1.4018,-1.4018,0,-1.3512,-1.3536,-1.3578,-1.3628,-1.3665,-1.3662,-1.3702,-1.3735,-1.3783,-1.3819,-1.386,-1.3921,-1.3972,-1.4005,-1.4056,-1.4087,-1.409,-1.41,-1.4101,-1.4107,-1.4035,-1.4021,-1.4097,-1.4097,-1.4097,-1.4097,-1.4097,-1.4097,-1.3559,-1.3618,-1.3631,-1.3705,-1.373,-1.3784,-1.3808,-1.384,-1.387,-1.3937,-1.3979,-1.3999,-1.4035,-1.409,-1.4137,-1.4146,-1.4167,-1.4178,-1.4187,-1.412,-1.4112,-1.4104,-1.4091,-1.4181,-1.4181,-1.4257,-1.4257,-1.4258]}]]